sat.trackr.live / text

‹ back to catalog

STARLINK-5530

NORAD 56494 · 2023-064AY

PAYLOAD ACTIVE UNKNOWN

§ Identity

Operator
Country
US
Launch date
2023-05-10
Launch site
AFWTR
Launch vehicle
Mass (kg)
RCS (m²)

Purposes: comms

External: N2YO · Heavens-Above · Gunter

§ Orbital elements

Epoch: 2026-05-24T15:59:01.372704Z

Period
96.11 min
Inclination
69.9991°
Eccentricity
0.0003206
Mean motion
14.98330089 rev/d
Perigee alt
569.8 km
Apogee alt
574.3 km
Semi-major
6,950.2 km
B*
-5.5633e-6
RAAN
272.8635°
Arg perigee
268.3388°
Mean anomaly
91.7404°
Rev number
16,760

§ Raw data

STARLINK-55301 56494U 23064AY  26144.66598811 -.00000159  00000+0 -55633-5 0  99972 56494  69.9991 272.8635 0003206 268.3388  91.7404 14.98330089167605

JSON: /api/v1/satellites/56494 · /tle

For live sub-satellite position, see the globe view (requires WebGL).

§ Visibility from observer

Set your observer location to see the next 7 days of passes ≥ 10°. The values pass through the URL so the page stays shareable.

No JS? Fill the form by hand. The geolocation button needs JavaScript.